Homer, AK

10:53 AM AKDT on September 27, 2016 (GMT -0800)
Homer

Weather History for PAHO - February, 2013

Change the Weather History Date:

Monday, February 4, 2013

  Actual Average Record
Temperature  
Mean Temperature 38 °F -  
Max Temperature 41 °F 30 °F 46 °F (2003)
Min Temperature 35 °F 17 °F -18 °F (1947)
Degree Days  
Heating Degree Days 27    
Moisture  
Dew Point 30 °F    
Average Humidity 74    
Maximum Humidity 87    
Minimum Humidity 62    
Precipitation  
Precipitation 0.04 in - - ()
Sea Level Pressure  
Sea Level Pressure 29.55 in    
Wind  
Wind Speed 5 mph (East)    
Max Wind Speed 12 mph    
Max Gust Speed 22 mph    
Visibility 10 miles    
Events Rain    
Averages and records for this station are not official NWS values.
T = Trace of Precipitation, MM = Missing Value Source: NWS Daily Summary

Daily Weather History Graph

Daily Weather History Graph

Search for Another Location

Airport or City:

Trip Planner

Search our weather history database for the weather conditions in past years. The results will help you decide how hot, cold, wet, or windy it might be!

Date:

Astronomy

Feb. 04, 2013 Rise Set
Actual Time 9:09 AM AKST 5:31 PM AKST
Civil Twilight 8:23 AM AKST 6:16 PM AKST
Nautical Twilight 7:34 AM AKST 7:06 PM AKST
Astronomical Twilight 6:46 AM AKST 7:54 PM AKST
Moon 4:20 AM AKST (2/4) 11:36 AM AKST (2/4)
Length of Visible Light 9h 53m
Length of Day
8h 21m
Waning Crescent, 35% of the Moon is Illuminated
Feb 4
Waning Crescent
Feb 9
New
Feb 17
First Quarter
Feb 25
Full
Mar 4
Last Quarter

Hourly Weather History & Observations

Time (AKST) Temp. Windchill Dew Point Humidity Pressure Visibility Wind Dir Wind Speed Gust Speed Precip Events Conditions
3:53 AM 35.1 °F 31.0 °F 28.9 °F 78% 29.48 in 10.0 mi Variable 4.6 mph - N/A   Overcast
4:53 AM 36.0 °F 32.1 °F 28.9 °F 76% 29.48 in 10.0 mi ENE 4.6 mph - N/A   Overcast
5:53 AM 37.0 °F 31.0 °F 30.9 °F 79% 29.49 in 10.0 mi East 8.1 mph - N/A   Overcast
6:15 AM 37.4 °F 32.8 °F 30.2 °F 75% 29.49 in 10.0 mi ENE 5.8 mph - N/A   Overcast
6:39 AM 37.4 °F - 30.2 °F 75% 29.49 in 10.0 mi Calm Calm - 0.00 in   Overcast
6:53 AM 36.0 °F 33.3 °F 30.9 °F 82% 29.49 in 10.0 mi NNE 3.5 mph - 0.00 in   Overcast
7:29 AM 35.6 °F 29.9 °F 30.2 °F 81% 29.49 in 10.0 mi NE 6.9 mph - 0.01 in   Overcast
7:38 AM 35.6 °F 29.9 °F 32.0 °F 87% 29.49 in 10.0 mi NE 6.9 mph - 0.01 in   Mostly Cloudy
7:53 AM 35.1 °F 29.3 °F 30.9 °F 85% 29.50 in 10.0 mi ENE 6.9 mph - 0.01 in   Mostly Cloudy
8:53 AM 36.0 °F 31.1 °F 30.9 °F 82% 29.52 in 10.0 mi East 5.8 mph - N/A   Overcast
9:43 AM 37.4 °F 32.1 °F 32.0 °F 81% 29.54 in 10.0 mi East 6.9 mph - 0.01 in Rain Light Rain
9:53 AM 37.9 °F 34.4 °F 32.0 °F 79% 29.55 in 10.0 mi East 4.6 mph - 0.01 in Rain Light Rain
10:53 AM 37.0 °F 31.6 °F 32.0 °F 82% 29.56 in 10.0 mi ENE 6.9 mph - 0.02 in   Overcast
11:53 AM 37.9 °F - 33.1 °F 83% 29.57 in 10.0 mi Calm Calm - N/A   Overcast
12:53 PM 39.0 °F 35.7 °F 32.0 °F 76% 29.58 in 10.0 mi East 4.6 mph - N/A   Mostly Cloudy
1:53 PM 39.9 °F - 32.0 °F 73% 29.59 in 10.0 mi Calm Calm - N/A   Clear
2:53 PM 39.9 °F - 30.9 °F 70% 29.58 in 10.0 mi Calm Calm - N/A   Mostly Cloudy
3:53 PM 39.9 °F 32.9 °F 30.0 °F 68% 29.59 in 10.0 mi SE 11.5 mph 21.9 mph N/A   Mostly Cloudy
4:53 PM 41.0 °F 35.2 °F 28.9 °F 62% 29.59 in 10.0 mi SE 9.2 mph 21.9 mph N/A   Mostly Cloudy
5:53 PM 39.0 °F 34.8 °F 30.0 °F 70% 29.62 in 10.0 mi Variable 5.8 mph - N/A   Mostly Cloudy
6:53 PM 39.9 °F 34.5 °F 30.0 °F 68% 29.60 in 10.0 mi SSE 8.1 mph - N/A   Mostly Cloudy
7:53 PM 39.0 °F 34.8 °F 30.0 °F 70% 29.61 in 10.0 mi ESE 5.8 mph - N/A   Mostly Cloudy
8:53 PM 39.9 °F 34.5 °F 28.0 °F 63% 29.62 in 10.0 mi SSE 8.1 mph 21.9 mph N/A   Overcast
9:53 PM 39.9 °F 36.7 °F 28.9 °F 65% 29.61 in 10.0 mi Variable 4.6 mph - N/A   Overcast
10:53 PM 39.9 °F 35.8 °F 28.0 °F 63% 29.62 in 10.0 mi Variable 5.8 mph - N/A   Overcast
11:53 PM 39.9 °F 33.9 °F 28.0 °F 63% 29.62 in 10.0 mi SE 9.2 mph - N/A   Overcast